Regional Weather Roundup
Issued by NWS Charleston, SC

Current Version | Previous Version | Graphics & Text | Print | Product List | Glossary On
Versions: 1 2 3 4 5 6 7 8 9 10 11 12 13 14 15 16 17 18 19 20 21 22 23 24 25 26 27 28 29 30 31 32 33 34 35 36 37 38 39 40 41 42 43 44 45 46 47 48 49 50
000
ASUS42 KCHS 271112
RWRCHS

REGIONAL WEATHER ROUNDUP
NATIONAL WEATHER SERVICE CHARLESTON SC
700 AM EDT THU JUL 27 2017

NOTE: "FAIR" INDICATES FEW OR NO CLOUDS BELOW 12,000 FEET WITH NO
SIGNIFICANT WEATHER AND/OR OBSTRUCTIONS TO VISIBILITY.

NOT ALL STATIONS ARE QUALITY CONTROLLED. USE DATA WITH CAUTION...
ESPECIALLY DEWPOINT OBSERVATIONS.

SCZ027-030-031-034>040-042>050-271200-
...SOUTHEAST SOUTH CAROLINA...

CITY           SKY/WX    TMP DP  RH WIND       PRES   REMARKS
N CHARLESTON   PTCLDY    74  73  97 CALM      30.05S FOG
WATERFRONT PRK   N/A     78  77  96 N5        30.03S
JOHNS ISLAND   FAIR      75  75 100 CALM      30.06R FOG
PINOPOLIS        N/A     75  75 100 VRB3      29.99S
MONCKS CORNER  FOG       73  72  94 CALM      30.06S VSB 3/4
SUMMERVILLE    FOG       72  72 100 CALM      30.06F VSB 3/4
BEAUFORT MCAS  MOCLDY    77  74  90 S3        30.06R
BEAUFORT ARPT  CLOUDY    75  72  88 S8        30.05S
HILTON HEAD IS RAIN      73  73 100 S6        30.07R FOG
WALTERBORO     FOG       73  73 100 NE3       30.06F VSB<1/4
ALLENDALE      NOT AVBL

...SOUTHERN MIDLANDS AND PEE DEE...

CITY           SKY/WX    TMP DP  RH WIND       PRES   REMARKS
GEORGETOWN       N/A     73  72  94 CALM      30.06F FOG
KINGSTREE      FAIR      70  70 100 CALM      30.06F FOG
ORANGEBURG     FOG       74  73  97 CALM      30.07S VSB 1/2
BARNWELL       FOG       75  75 100 NE5       30.07S VSB<1/4
AIKEN          FOG       72  72 100 CALM      30.10F VSB<1/4
MANNING        FAIR      72  72 100 NE3       30.06F FOG
COLUMBIA       FOG       74  73  97 CALM      30.07S VSB 1/2
SUMTER         PTCLDY    73  71  95 CALM      30.05S
FLORENCE       CLEAR     72  72 100 CALM      30.07S
MYRTLE BEACH   PTCLDY    73  72  94 CALM      30.08
N MYRTLE BEACH CLEAR     71  71 100 CALM      30.06F FOG

$$

GAZ063-065-086>088-099>101-113>116-118-119-134>141-150-271200-
...SOUTHEAST GEORGIA...

CITY           SKY/WX    TMP DP  RH WIND       PRES   REMARKS
SAVANNAH ARPT  LGT RAIN  75  73  93 CALM      30.04S
HUNTER AAF     PTCLDY    74  73  96 CALM      30.02S
FORT STEWART   LGT RAIN  75  72  88 E5        30.01S FOG
STATESBORO     MOCLDY    73  73 100 CALM      30.04F FOG
SYLVANIA       FOG       74  74 100 NE3       30.06S VSB 1/2
CLAXTON        CLOUDY    75  74  97 CALM      30.04F FOG

...CSRA...CENTRAL AND FAR SOUTHEAST GEORGIA...

CITY           SKY/WX    TMP DP  RH WIND       PRES   REMARKS
THOMSON        FOG       71  71  98 N3        30.13R VSB 1/4
AUGUSTA-BUSH   FOG       75  74  96 CALM      30.05F VSB<1/4
AUGUSTA-DANIEL FOG       75  71  87 NE3       30.07F VSB 1/4
SWAINSBORO     FAIR      72  72 100 CALM      30.07R
VIDALIA        MOCLDY    73  73 100 NE3       30.05R FOG
EASTMAN        FOG       74  73  99 N3        30.08R VSB 1/4
HAZLEHURST     CLOUDY    75  75 100 NE3       30.03S
ALMA           CLOUDY    76  73  91 CALM      30.02F
WAYCROSS       CLOUDY    77  77 100 CALM      30.02S
JESUP          NOT AVBL
BAXLEY         CLOUDY    73  73 100 CALM      30.02F FOG
BRUNSWICK      LGT RAIN  77  77 100 CALM      30.02S
SAINT SIMONS   LGT RAIN  78  76  93 E9        30.01S

$$

SCZ027-028-034-036>038-045-046-048>050-GAZ119-141-271200-
...LAKE AND SUPPLEMENTAL COASTAL OBSERVATIONS...

STATION/POSITION TIME  TEMP    WIND        PRES    WAVE   SWELL
                       AIR SEA DIR/SP/G            HT/PER HT/PER/DIR
                 (UTC) (F)     (DEG/KT/KT) (MB)    (FT/S) (FT/S/D)
WINYAH BAY       0945   77     360/  2     1018.0
LAKE MURRAY      NOT AVBL
ACE BASIN NERRS  0945   75        CALM     1017.0
FORT PULASKI     1048   73 84  150/  4/  6 1017.7R
SAPELO ISLAND    1000   73        CALM     1016.0

$$

ANZ835-935-AMZ111-154-330-350-352-354-370-450-454-472-271200-
...C-MAN AND BUOY OBSERVATIONS...

STATION/POSITION TIME  TEMP    WIND        PRES    WAVE   SWELL
                       AIR SEA DIR/SP/G            HT/PER HT/PER/DIR
                 (UTC) (F)     (DEG/KT/KT) (MB)    (FT/S) (FT/S/D)
BUOY 41004       1050   80 82   80/  2/  4 1017.3S   2/10   2/100/10
BUOY 41008       1050   76 80  350/ 12/ 16 1016.8R   2/10   2/110/10
FOLLY BEACH CMAN 1000   78      50/  1/  2 1018.0R
CAPERS NEARSHORE 1008   78 84  140/  2/  6 1017.6R
FRIPP NEARSHORE  1008   78 84  200/ 12/ 16 1017.1S


STATION/POSITION TIME  TEMP    WIND        PRES    WAVE   SWELL
                       AIR SEA DIR/SP/G            HT/PER HT/PER/DIR
                 (UTC) (F)     (DEG/KT/KT) (MB)    (FT/S) (FT/S/D)
5E ST. MARYS GA  1030      78                N/A     2/10
FRYING PAN BUOY  1050   81 82   80/ 12/ 14 1017.5S   3/ 5   2/ 80/ 6
BUOY 41025       1050   80 83  150/  6/  8 1017.8F   3/ 8   3/ 50/ 8
CAPE LOOKOUT NC  1000   79     130/  6/  7 1018.0R
BUOY 41002       0950   81 83  250/ 10/ 12 1017.3    2/ 7   2/ 90/ 7
BUOY 41010       1050   84 85  180/ 10/ 12 1017.0S   3/ 6   2/130/ 6
ST AUGUSTINE FL  1100   78 75  190/  3/  4 1016.5R


$$




USA.gov is the U.S. government's official web portal to all federal, state and local government web resources and services.